Regional Weather Roundup
Issued by NWS

Home | Current Version | Previous Version | Text Only | Print | Product List | Glossary On
Versions: 1 2 3 4 5 6 7 8 9 10 11 12 13 14 15 16 17 18 19 20 21 22 23 24 25 26 27 28 29 30 31 32 33 34 35 36 37 38 39 40 41 42 43 44 45 46 47 48 49 50
000
ASUS43 KDMX 031006
RWRIA

WEATHER ROUNDUP FOR IOWA
NATIONAL WEATHER SERVICE DES MOINES IA
500 AM CDT TUE AUG 03 2021

NOTE: "FAIR" INDICATES FEW OR NO CLOUDS BELOW 12,000 FEET WITH NO
SIGNIFICANT WEATHER AND/OR OBSTRUCTIONS TO VISIBILITY.

* - THESE STATIONS ARE NOT NWS STATIONS...THUS NOT UNDER NWS
QUALITY CONTROL.  THEY ALSO DO NOT REPORT WEATHER SUCH
AS PRECIPITATION OR FOG.

IAZ001>003-012>014-020>022-031>034-043>046-031100-
   NORTHWEST IOWA

CITY           SKY/WX    TMP DP  RH WIND       PRES   REMARKS
CARROLL *      CLOUDY    52  52 100 CALM      30.13F
CHEROKEE *     CLEAR     54  54 100 CALM      30.14R
DENISON *      CLEAR     54  54 100 E3        30.15F
LE MARS *      CLEAR     54  52  94 CALM      30.12S
MAURICE *      CLOUDY    57  57 100 S8        30.12S
SHELDON *        N/A    N/A N/A N/A MISG        N/A
SIOUX CITY       N/A    N/A N/A N/A MISG      30.13S
SPENCER        PTCLDY    54  51  90 CALM      30.13F
STORM LAKE *   CLEAR     55  55 100 S6        30.14S
$$

IAZ055>058-069>071-079>083-090>094-031100-
   SOUTHWEST IOWA

CITY           SKY/WX    TMP DP  RH WIND       PRES   REMARKS
ATLANTIC *     PTCLDY    54  54 100 N5        30.13F
AUDUBON *      PTCLDY    54  52  94 CALM      30.16S
CLARINDA *     PTCLDY    55  55 100 CALM      30.15F FOG
COUNCIL BLFS * CLEAR     61  57  88 SE3       30.13S
CRESTON *      CLEAR     57  57 100 CALM      30.15S
HARLAN  *      FOG       54  54 100 CALM      30.15S VSB 1/2
LAMONI         CLEAR     59  57  93 N3        30.14S
RED OAK *      PTCLDY    55  55 100 CALM      30.14S FOG
SHENANDOAH *   FOG       57  57 100 CALM      30.13S VSB 1/4
$$

IAZ047>049-059>061-072>074-084-031100-
   CENTRAL IOWA

CITY           SKY/WX    TMP DP  RH WIND       PRES   REMARKS
AMES           CLEAR     55  53  93 CALM      30.13S
ANKENY *       CLEAR     57  55  94 CALM      30.14S
BOONE *        CLEAR     59  57  94 CALM      30.15F
CHARITON *     CLEAR     57  57 100 CALM      30.14R
DES MOINES     CLEAR     61  58  90 W3        30.13R
GRINNELL*      CLEAR     58  56  94 NW5       30.14F
KNOXVILLE *    CLEAR     59  55  88 W5        30.14R
MARSHALLTOWN   CLEAR     52  50  93 CALM      30.13S
NEWTON *       CLEAR     59  59 100 CALM      30.13S
PELLA *          N/A     59  58  96 CALM      30.15R
PERRY *        FAIR      55  55 100 NW5       30.14S
$$

IAZ004>006-015-016-023>025-035-036-031100-
   NORTH CENTRAL IOWA

CITY           SKY/WX    TMP DP  RH WIND       PRES   REMARKS
ALGONA *       CLEAR     55  55 100 W6        30.13R
CLARION *      PTCLDY    54  54 100 CALM      30.14S
ESTHERVILLE    CLEAR     55  52  89 SW3       30.13S
FORT DODGE *   FOG       52  52 100 CALM      30.14S VSB 1/4
MASON CITY     CLEAR     53  50  89 CALM      30.15R
FOREST CITY *  FAIR     N/A N/A N/A CALM      30.14S
WEBSTER CITY * CLEAR     54  54 100 SE3       30.12S
IOWA FALLS *   FAIR      54  53  94 CALM      30.15S
$$

IAZ007>011-017>019-026>030-037>042-050>054-066-031100-
   NORTHEAST IOWA

CITY           SKY/WX    TMP DP  RH WIND       PRES   REMARKS
CEDAR RAPIDS   PTCLDY    55  52  89 CALM      30.12S
CHARLES CITY * CLEAR     55  54  94 CALM      30.13S
CLINTON *      CLEAR     54  54 100 CALM      30.13S
DECORAH *      CLOUDY    59  57  94 CALM      30.12S
DUBUQUE        CLEAR     54  51  90 CALM      30.14R
MONTICELLO *   CLEAR     50  50 100 CALM      30.13S
OELWEIN *      CLEAR     55  52  88 CALM      30.13S
WATERLOO       CLEAR     55  50  83 CALM      30.12S
$$

IAZ064-065-067-068-078-031100-
   EAST CENTRAL IOWA

CITY           SKY/WX    TMP DP  RH WIND       PRES   REMARKS
DAVENPORT      CLEAR     53  51  93 CALM      30.14S
IOWA CITY      CLEAR     57  52  83 CALM      30.14R
MT. PLEASANT * CLEAR     59  57  94 CALM      30.13S
MUSCATINE *    CLEAR     57  57 100 CALM      30.13R
QUAD CITIES    CLEAR     57  53  86 CALM      30.12S
$$

IAZ062-063-075>077-085>089-095>099-031100-
   SOUTHEAST IOWA

CITY           SKY/WX    TMP DP  RH WIND       PRES   REMARKS
BURLINGTON     MOCLDY    60  59  96 CALM      30.12S
FAIRFIELD *    CLEAR     55  55 100 W3        30.13S
FORT MADISON *   N/A     61  61 100 CALM      30.14R
KEOKUK *         N/A     59  59 100 CALM      30.12S
OSKALOOSA *    FAIR      58  56  95 CALM      30.14R FOG
OTTUMWA        CLEAR     57  57 100 NW3       30.13S
WASHINGTON *   CLEAR     55  55 100 CALM      30.12R
$$

ABBREVIATIONS USED IN REMARKS
   TC - TEMPERATURES IN CELSIUS
  WCI - WIND CHILL INDEX
   HX - HEAT INDEX
  VSB - VISIBILITY
$$




USA.gov is the U.S. government's official web portal to all federal, state and local government web resources and services.